Flag for Germany Weather past 2 weeks in Merseburg, Saxony-Anhalt, Germany

45 °F

Light rain. Partly cloudy.

Feels Like: 36 °F
Forecast: 44 / 51 °F
Wind: 21 mph from West

Location: Leipzig-Schkeuditz

Current Time: Nov 30, 2015 at 2:54:35 AM

Latest Report: Nov 30, 2015 at 1:50 AM

Visibility: N/A

Pressure: 29.74 "Hg

Humidity: 93%

Dew point: 43 °F

Location of MerseburgLocation

Historic Weather in Merseburg — Graph


Merseburg temperature yesterday

Maximum temperature yesterday: 52 °F (at 10:50 PM)
Minimum temperature yesterday: 37 °F (at 12:20 AM)
Average temperature yesterday: 44 °F

Past Weeks' High & Low Weather Summary

High59 °F (Nov 17, 1:50 PM)100% (Nov 15, 1:20 AM)30.24 "Hg (Nov 15, 1:20 AM)
Low28 °F (Nov 23, 10:20 PM)55% (Nov 18, 1:20 PM)29.36 "Hg (Nov 21, 12:20 PM)
Average42 °F87%29.81 "Hg
* Reported Nov 15 1:20 AM — Nov 30 1:20 AM, Merseburg, Weather by CustomWeather, © 2015

Note: Actual official high and low records may vary slightly from our data, if they occured in-between our weather recording intervals... More about our weather records


Merseburg weather history for previous 24 hours

Time TempWeatherWind HumidityBarometerVisibility
1:20 AM
Mon, Nov 30
45 °FSprinkles. Partly cloudy.22 mph93%29.71 "HgN/A
12:50 AM45 °FRain showers. Passing clouds.21 mph93%29.74 "Hg5 mi
11:50 PM
Sun, Nov 29
52 °FLight rain. Passing clouds.35 mph77%29.65 "HgN/A
11:20 PM50 °FLight rain. Passing clouds.33 mph82%29.62 "HgN/A
10:50 PM52 °FPassing clouds.30 mph72%29.65 "HgN/A
10:20 PM50 °FLight rain. Passing clouds.30 mph76%29.65 "HgN/A
9:50 PM50 °FPassing clouds.30 mph76%29.68 "HgN/A
9:20 PM50 °FPassing clouds.30 mph76%29.68 "HgN/A
8:50 PM50 °FPartly cloudy.29 mph76%29.71 "HgN/A
8:20 PM48 °FOvercast.25 mph82%29.71 "HgN/A
7:50 PM48 °FOvercast.25 mph82%29.71 "HgN/A
7:20 PM48 °FLight rain. Partly cloudy.20 mph82%29.74 "HgN/A
6:50 PM46 °FLight rain. Passing clouds.21 mph82%29.74 "HgN/A
6:20 PM46 °FLight rain. Partly cloudy.20 mph82%29.74 "HgN/A
5:50 PM45 °FLight rain. Partly cloudy.16 mph87%29.74 "HgN/A
5:20 PM46 °FLight rain. Partly cloudy.16 mph82%29.77 "HgN/A
4:50 PM45 °FPartly cloudy.17 mph81%29.77 "HgN/A
4:20 PM45 °FPartly cloudy.18 mph81%29.77 "HgN/A
3:50 PM45 °FBroken clouds.15 mph81%29.77 "HgN/A
3:20 PM45 °FBroken clouds.18 mph81%29.80 "HgN/A
2:50 PM45 °FBroken clouds.20 mph81%29.80 "HgN/A
2:20 PM45 °FPartly sunny.18 mph81%29.80 "HgN/A
1:50 PM45 °FPartly sunny.21 mph81%29.80 "HgN/A
1:20 PM43 °FMostly cloudy.21 mph87%29.80 "HgN/A
12:50 PM45 °FMostly cloudy.18 mph76%29.80 "HgN/A
12:20 PM43 °FPartly sunny.17 mph81%29.80 "HgN/A
11:50 AM43 °FPartly sunny.24 mph81%29.80 "HgN/A
11:20 AM43 °FPartly sunny.21 mph81%29.80 "HgN/A
10:20 AM43 °FPartly sunny.18 mph76%29.83 "HgN/A
9:50 AM43 °FMore clouds than sun.18 mph76%29.83 "HgN/A
9:20 AM41 °FMostly cloudy.21 mph81%29.83 "HgN/A
8:50 AM41 °FMostly cloudy.21 mph81%29.83 "HgN/A
8:20 AM41 °FMore clouds than sun.21 mph81%29.80 "HgN/A
7:50 AM41 °FMore clouds than sun.17 mph81%29.83 "HgN/A
7:20 AM41 °FPartly cloudy.15 mph81%29.83 "HgN/A
6:50 AM41 °FPassing clouds.20 mph81%29.80 "HgN/A
6:20 AM39 °FPassing clouds.20 mph87%29.80 "HgN/A
5:20 AM39 °FLight rain. Passing clouds.23 mph87%29.80 "HgN/A
4:50 AM39 °FLight rain. Partly cloudy.18 mph81%29.83 "HgN/A
4:20 AM39 °FLight rain. Passing clouds.18 mph81%29.83 "HgN/A
3:50 AM39 °FPassing clouds.20 mph81%29.83 "HgN/A
3:20 AM39 °FPartly cloudy.20 mph75%29.86 "HgN/A
2:50 AM37 °FClear.20 mph81%29.83 "Hg10 mi
2:20 AM37 °FClear.18 mph81%29.86 "Hg10 mi
Weather by CustomWeather, © 2015

See weather overviewHow to use our weather pages